WXM80 ListenWXM80 Stop

You find our weather info also at:

UK Metoffice

WeatherCloud

Weather Underground

Northeastern Weather Network

AWEKAS

Citizen Weather Observer Program (CWOP)

HAMweather, WeatherForYou, PWS Weather


Weather Underground History page Text

Daily Summary for December 10, 2017 Units:  Metric    English   Both
« Previous Day
Next Day »
Daily Weekly Monthly Yearly Custom
  High: Low: Average:
Temperature: -17.8 °C -0.3 °C 1.3 °C
Dew Point: -17.8 °C -3.2 °C -1.5 °C
Humidity: Humidity % 70 % 82 %
Wind Speed: 0 km/h 0 km/h 4 km/h
Wind Gust: 0 km/h - -
Wind:- - SW
Pressure: 0 hPa 1005.3 hPa -
Precipitation: 0 mm    
Historical Graphs
 
 
Tabular Data for December 10, 2017
Time Temperature Dew Point Pressure Wind Wind Speed Wind Gust Humidity Rainfall Rate (Hourly)
-17.8 °C -17.8 °C 0 hPa Calm     Humidity % 0 mm
00:00 0.4 °C -0.1 °C 1005.6 hPa Calm     96 % 0 mm
00:05 0.5 °C -0.1 °C 1005.6 hPa Calm     96 % 0 mm
00:10 0.5 °C -0.1 °C 1005.6 hPa Calm     96 % 0 mm
00:15 0.5 °C -0.1 °C 1005.3 hPa Calm     96 % 0 mm
00:20 0.5 °C -0.1 °C 1005.3 hPa Calm     96 % 0 mm
00:25 0.6 °C 0 °C 1005.3 hPa Calm     96 % 0 mm
00:30 0.6 °C 0 °C 1005.3 hPa Calm     96 % 0 mm
00:50 0.6 °C 0.1 °C 1005.6 hPa Calm     96 % 0 mm
01:10 0.6 °C 0.1 °C 1005.6 hPa Calm     96 % 0 mm
01:25 0.7 °C -0.1 °C 1006 hPa Calm     95 % 0 mm
01:30 0.7 °C -0.1 °C 1006 hPa Calm     95 % 0 mm
01:35 0.7 °C -0.1 °C 1006 hPa Calm     95 % 0 mm
01:46 0.7 °C -0.1 °C 1006.3 hPa Calm     95 % 0 mm
01:51 0.7 °C -0.1 °C 1006.3 hPa Calm     95 % 0 mm
01:56 0.7 °C -0.1 °C 1006 hPa Calm     95 % 0 mm
02:01 0.7 °C -0.1 °C 1006 hPa Calm     95 % 0 mm
02:06 0.7 °C -0.1 °C 1006 hPa Calm     95 % 0 mm
02:11 0.7 °C -0.1 °C 1006 hPa Calm     95 % 0 mm
02:16 0.6 °C -0.1 °C 1006.3 hPa Calm     95 % 0 mm
02:31 0.6 °C -0.2 °C 1006.3 hPa Calm     95 % 0 mm
02:36 0.6 °C -0.2 °C 1006.3 hPa Calm     95 % 0 mm
02:41 0.6 °C -0.2 °C 1006.7 hPa Calm     95 % 0 mm
02:46 0.5 °C -0.2 °C 1006.7 hPa Calm     95 % 0 mm
02:51 0.5 °C -0.2 °C 1006.7 hPa Calm     95 % 0 mm
02:56 0.5 °C -0.3 °C 1006.7 hPa Calm     94 % 0 mm
03:11 0.6 °C -0.3 °C 1006.7 hPa Calm     94 % 0 mm
03:21 0.6 °C -0.3 °C 1006.7 hPa Calm     94 % 0 mm
03:26 0.6 °C -0.3 °C 1006.7 hPa Calm     94 % 0 mm
03:31 0.6 °C -0.3 °C 1006.7 hPa Calm     94 % 0 mm
03:41 0.6 °C -0.1 °C 1006.7 hPa Calm     95 % 0 mm
03:46 0.6 °C -0.1 °C 1006.7 hPa Calm     95 % 0 mm
03:56 0.6 °C -0.1 °C 1006.7 hPa Calm     95 % 0 mm
04:01 0.6 °C -0.3 °C 1006.7 hPa Calm     94 % 0 mm
04:07 0.6 °C -0.3 °C 1006.7 hPa Calm     94 % 0 mm
04:12 0.5 °C -0.3 °C 1006.7 hPa Calm     94 % 0 mm
04:17 0.4 °C -0.4 °C 1006.7 hPa Calm     94 % 0 mm
04:22 0.4 °C -0.4 °C 1007 hPa Calm     94 % 0 mm
04:42 0.2 °C -0.8 °C 1007 hPa Calm     93 % 0 mm
04:47 0.2 °C -0.8 °C 1007.3 hPa Calm     93 % 0 mm
04:52 0.1 °C -0.9 °C 1007.3 hPa Calm     93 % 0 mm
05:02 0.1 °C -0.9 °C 1007.7 hPa Calm     93 % 0 mm
05:07 0.1 °C -1.1 °C 1007.7 hPa Calm     92 % 0 mm
05:12 0.1 °C -1.1 °C 1007.7 hPa Calm     92 % 0 mm
05:17 0 °C -1.2 °C 1007.7 hPa Calm     92 % 0 mm
05:22 0 °C -1.2 °C 1007.7 hPa Calm     92 % 0 mm
05:27 0 °C -1.2 °C 1008 hPa Calm     92 % 0 mm
05:32 0 °C -1.2 °C 1008 hPa Calm     92 % 0 mm
05:42 -0.1 °C -1.3 °C 1008.4 hPa Calm     91 % 0 mm
05:47 -0.1 °C -1.3 °C 1008.4 hPa Calm     91 % 0 mm
05:52 -0.1 °C -1.3 °C 1008.4 hPa Calm     91 % 0 mm
05:57 -0.1 °C -1.4 °C 1008.7 hPa Calm     91 % 0 mm
06:02 -0.1 °C -1.4 °C 1008.7 hPa Calm     91 % 0 mm
06:08 -0.1 °C -1.4 °C 1008.7 hPa Calm     91 % 0 mm
06:23 -0.2 °C -1.6 °C 1009 hPa Calm     90 % 0 mm
06:28 -0.2 °C -1.7 °C 1009 hPa Calm     90 % 0 mm
06:33 -0.2 °C -1.7 °C 1009.4 hPa Calm     90 % 0 mm
06:38 -0.2 °C -1.7 °C 1009.4 hPa Calm     90 % 0 mm
06:43 -0.2 °C -1.7 °C 1009.4 hPa Calm     90 % 0 mm
06:48 -0.3 °C -1.7 °C 1009.4 hPa Calm     90 % 0 mm
06:53 -0.3 °C -1.7 °C 1009.4 hPa Calm     90 % 0 mm
06:58 -0.3 °C -1.7 °C 1009.7 hPa Calm     90 % 0 mm
07:08 -0.3 °C -1.7 °C 1010 hPa Calm     90 % 0 mm
07:13 -0.3 °C -1.7 °C 1010 hPa Calm     90 % 0 mm
07:18 -0.3 °C -1.7 °C 1010 hPa Calm     90 % 0 mm
07:28 -0.2 °C -1.8 °C 1010.7 hPa Calm     89 % 0 mm
07:33 -0.2 °C -1.8 °C 1010.7 hPa Calm     89 % 0 mm
07:38 -0.2 °C -1.8 °C 1010.7 hPa Calm     89 % 0 mm
07:43 -0.2 °C -1.8 °C 1010.7 hPa Calm     89 % 0 mm
07:48 -0.2 °C -1.8 °C 1010.7 hPa Calm     89 % 0 mm
07:53 -0.2 °C -1.9 °C 1010.7 hPa Calm     88 % 0 mm
07:58 -0.2 °C -1.9 °C 1011.1 hPa Calm     88 % 0 mm
08:03 -0.2 °C -1.9 °C 1011.1 hPa Calm     88 % 0 mm
08:08 -0.2 °C -1.9 °C 1011.1 hPa Calm     88 % 0 mm
08:14 -0.1 °C -2 °C 1011.1 hPa Calm     87 % 0 mm
08:19 -0.1 °C -2 °C 1011.4 hPa Calm     87 % 0 mm
08:24 -0.1 °C -1.9 °C 1011.4 hPa Calm     87 % 0 mm
08:34 -0.1 °C -1.9 °C 1011.4 hPa Calm     87 % 0 mm
08:39 0 °C -1.9 °C 1011.4 hPa WSW 6.3 km/h 14.8 km/h 87 % 0 mm
08:44 0 °C -1.9 °C 1011.7 hPa West 4 km/h 16.7 km/h 87 % 0 mm
08:49 0.1 °C -1.8 °C 1011.7 hPa WSW 4.2 km/h 9.7 km/h 87 % 0 mm
08:54 0.1 °C -1.8 °C 1011.7 hPa West 5 km/h 11.1 km/h 87 % 0 mm
09:09 0.2 °C -1.9 °C 1012.1 hPa WNW 6.9 km/h 11.3 km/h 86 % 0 mm
09:19 0.3 °C -1.8 °C 1012.1 hPa West 5.1 km/h 11.1 km/h 86 % 0 mm
09:24 0.3 °C -1.6 °C 1012.1 hPa WNW 3.9 km/h 11.1 km/h 87 % 0 mm
09:34 0.5 °C -1.6 °C 1012.4 hPa West 8 km/h 16.7 km/h 86 % 0 mm
09:39 0.6 °C -1.7 °C 1012.1 hPa WSW 7.2 km/h 14.8 km/h 85 % 0 mm
09:49 0.8 °C -1.6 °C 1012.4 hPa WNW 4.7 km/h 7.4 km/h 84 % 0 mm
09:54 0.9 °C -1.4 °C 1012.4 hPa West 9.8 km/h 22.2 km/h 84 % 0 mm
09:59 1.1 °C -1.5 °C 1012.4 hPa West 12.4 km/h 18.5 km/h 83 % 0 mm
10:09 1.3 °C -1.4 °C 1012.4 hPa WSW 15.8 km/h 20.4 km/h 82 % 0 mm
10:14 1.3 °C -1.4 °C 1012.4 hPa WSW 7.4 km/h 22.2 km/h 82 % 0 mm
10:19 1.4 °C -1.3 °C 1012.4 hPa WSW 10.1 km/h 24.1 km/h 82 % 0 mm
10:29 1.6 °C -1.5 °C 1012.4 hPa WSW 13 km/h 18.5 km/h 80 % 0 mm
10:39 1.6 °C -1.3 °C 1012.4 hPa WSW 8.5 km/h 14.8 km/h 81 % 0 mm
10:44 1.6 °C -1.3 °C 1012.4 hPa WSW 11.6 km/h 18.5 km/h 81 % 0 mm
10:54 1.6 °C -1.4 °C 1012.4 hPa WSW 5 km/h 14.8 km/h 80 % 0 mm
11:04 1.6 °C -1.3 °C 1012.4 hPa SW 11.1 km/h 18.5 km/h 81 % 0 mm
11:14 1.7 °C -1.4 °C 1012.4 hPa West 9.2 km/h 13 km/h 80 % 0 mm
11:19 1.7 °C -1.4 °C 1012.1 hPa WSW 8.7 km/h 18.5 km/h 80 % 0 mm
11:29 1.7 °C -1.2 °C 1012.1 hPa WSW 11.7 km/h 18.5 km/h 81 % 0 mm
11:34 1.8 °C -1.1 °C 1012.1 hPa WSW 7.7 km/h 11.3 km/h 81 % 0 mm
11:40 1.8 °C -0.9 °C 1012.1 hPa WSW 4.7 km/h 7.4 km/h 82 % 0 mm
11:45 1.8 °C -1.1 °C 1012.1 hPa WSW 10 km/h 18.5 km/h 81 % 0 mm
11:49 1.8 °C -1.1 °C 1012.1 hPa WNW 3.5 km/h 7.4 km/h 81 % 0 mm
11:59 1.9 °C -0.8 °C 1012.1 hPa NW 1 km/h 3.7 km/h 82 % 0 mm
12:04 2.1 °C -0.7 °C 1012.1 hPa WSW 8.2 km/h 14.5 km/h 82 % 0 mm
12:10 2.2 °C -0.6 °C 1012.1 hPa SW 9.2 km/h 20.4 km/h 82 % 0 mm
12:15 2.3 °C -0.5 °C 1012.1 hPa SSW 8 km/h 14.8 km/h 82 % 0 mm
12:20 2.4 °C -0.5 °C 1012.1 hPa WSW 5.5 km/h 13 km/h 81 % 0 mm
12:25 2.7 °C -0.3 °C 1012.1 hPa West 4.8 km/h 13 km/h 81 % 0 mm
12:30 2.8 °C -0.2 °C 1012.1 hPa SW 7.7 km/h 18.5 km/h 81 % 0 mm
12:40 3 °C -0.3 °C 1012.1 hPa SSW 3.9 km/h 14.8 km/h 79 % 0 mm
12:45 3.1 °C -0.2 °C 1012.1 hPa WSW 1.1 km/h 5.6 km/h 79 % 0 mm
12:50 3.2 °C 0.1 °C 1012.4 hPa WSW 10.5 km/h 16.1 km/h 80 % 0 mm
12:55 3.3 °C -0.2 °C 1012.1 hPa WSW 8 km/h 22.2 km/h 78 % 0 mm
13:00 3.3 °C 0 °C 1012.1 hPa WSW 6.1 km/h 11.1 km/h 79 % 0 mm
13:05 3.3 °C -0.4 °C 1012.4 hPa SSW 5.1 km/h 18.5 km/h 77 % 0 mm
13:10 3.3 °C -0.3 °C 1012.1 hPa West 10.9 km/h 22.2 km/h 77 % 0 mm
13:20 3.5 °C -0.2 °C 1012.1 hPa West 6.1 km/h 13 km/h 77 % 0 mm
13:25 3.6 °C -0.3 °C 1012.1 hPa West 11.4 km/h 18.5 km/h 76 % 0 mm
13:31 3.6 °C -0.2 °C 1012.1 hPa WSW 4.8 km/h 19.3 km/h 76 % 0 mm
13:36 3.7 °C -0.6 °C 1012.1 hPa WSW 9.7 km/h 22.5 km/h 74 % 0 mm
13:43 3.7 °C -0.3 °C 1012.4 hPa WSW 16.9 km/h 29 km/h 75 % 0 mm
13:48 3.7 °C -0.3 °C 1012.1 hPa SW 7.6 km/h 16.7 km/h 75 % 0 mm
13:53 3.8 °C -0.1 °C 1012.1 hPa SW 5.1 km/h 8 km/h 76 % 0 mm
13:58 3.8 °C -0.2 °C 1012.1 hPa WSW 11.9 km/h 16.7 km/h 75 % 0 mm
14:03 3.8 °C -0.6 °C 1012.1 hPa West 13.7 km/h 22.5 km/h 73 % 0 mm
14:08 3.8 °C -0.4 °C 1012.1 hPa SW 6.4 km/h 13 km/h 74 % 0 mm
14:13 3.8 °C -0.2 °C 1012.4 hPa WSW 7.6 km/h 8 km/h 75 % 0 mm
14:14 3.8 °C -0.2 °C 1012.4 hPa West 5.5 km/h 13 km/h 75 % 0 mm
14:19 3.8 °C -0.4 °C 1012.4 hPa WSW 13 km/h 24.1 km/h 74 % 0 mm
14:24 3.8 °C -0.4 °C 1012.4 hPa WSW 6.8 km/h 11.1 km/h 74 % 0 mm
14:29 3.7 °C -0.5 °C 1012.8 hPa West 8.7 km/h 16.7 km/h 74 % 0 mm
14:34 3.7 °C -0.3 °C 1012.8 hPa West 6.4 km/h 18.5 km/h 75 % 0 mm
14:44 3.7 °C -0.5 °C 1012.8 hPa West 11.6 km/h 19.3 km/h 74 % 0 mm
14:49 3.7 °C -0.6 °C 1012.8 hPa WSW 2.6 km/h 9.3 km/h 74 % 0 mm
14:54 3.6 °C -0.9 °C 1012.8 hPa SW 9.8 km/h 20.9 km/h 72 % 0 mm
14:59 3.6 °C -1.2 °C 1012.8 hPa WSW 5.5 km/h 18.5 km/h 71 % 0 mm
15:14 3.4 °C -1.4 °C 1013.1 hPa WSW 10 km/h 13 km/h 71 % 0 mm
15:25 3.3 °C -1.2 °C 1013.1 hPa SW 8.7 km/h 12.9 km/h 72 % 0 mm
15:30 3.3 °C -1.5 °C 1013.1 hPa SW 8 km/h 16.7 km/h 71 % 0 mm
15:40 3.2 °C -1.3 °C 1013.1 hPa SW 6.1 km/h 11.1 km/h 72 % 0 mm
15:50 3.2 °C -1.4 °C 1013.4 hPa SSW 6 km/h 11.1 km/h 72 % 0 mm
15:55 3.1 °C -1.3 °C 1013.4 hPa SW 3.9 km/h 9.3 km/h 73 % 0 mm
16:00 3.1 °C -1.3 °C 1013.4 hPa SSW 5.8 km/h 13 km/h 73 % 0 mm
16:05 3.1 °C -1.3 °C 1013.4 hPa SW 4.7 km/h 6.4 km/h 73 % 0 mm
16:20 2.9 °C -1.4 °C 1013.8 hPa SSW 6.9 km/h 13 km/h 73 % 0 mm
16:25 2.9 °C -1.5 °C 1013.8 hPa WSW 4 km/h 13 km/h 73 % 0 mm
16:40 2.8 °C -1.4 °C 1014.1 hPa WSW 3.1 km/h 7.4 km/h 74 % 0 mm
16:43 2.8 °C -1.6 °C 1014.1 hPa SW 6.9 km/h 9.3 km/h 73 % 0 mm
16:53 2.7 °C -1.6 °C 1014.1 hPa SSW 9.5 km/h 18.5 km/h 73 % 0 mm
17:03 2.6 °C -1.8 °C 1014.1 hPa SW 4.2 km/h 13 km/h 73 % 0 mm
17:08 2.5 °C -1.7 °C 1014.1 hPa SSW 5.8 km/h 14.8 km/h 74 % 0 mm
17:15 2.4 °C -1.7 °C 1014.1 hPa SSW 3.9 km/h 8 km/h 74 % 0 mm
17:20 2.3 °C -2 °C 1014.4 hPa SW 5.1 km/h 13 km/h 73 % 0 mm
17:25 2.3 °C -1.9 °C 1014.4 hPa SW 6.4 km/h 11.3 km/h 74 % 0 mm
17:30 2.2 °C -1.9 °C 1014.4 hPa SSW 7.1 km/h 11.1 km/h 74 % 0 mm
17:40 2.2 °C -2 °C 1014.8 hPa SW 4.2 km/h 6.4 km/h 74 % 0 mm
17:45 2.1 °C -2.1 °C 1014.8 hPa WSW 3.7 km/h 9.3 km/h 74 % 0 mm
17:55 2 °C -2.2 °C 1014.8 hPa West 7.9 km/h 9.3 km/h 74 % 0 mm
18:00 1.9 °C -2.3 °C 1014.8 hPa SSW 6.6 km/h 14.8 km/h 74 % 0 mm
18:10 1.8 °C -2.5 °C 1015.1 hPa SSW 6.8 km/h 14.5 km/h 73 % 0 mm
18:15 1.8 °C -2.3 °C 1015.1 hPa SW 3.2 km/h 14.5 km/h 74 % 0 mm
18:21 1.8 °C -2.4 °C 1015.1 hPa SSW 4.8 km/h 11.1 km/h 74 % 0 mm
18:26 1.7 °C -2.4 °C 1015.1 hPa SW 2.9 km/h 5.6 km/h 74 % 0 mm
18:36 1.7 °C -2.5 °C 1015.1 hPa WSW 5.5 km/h 7.4 km/h 74 % 0 mm
18:46 1.5 °C -2.6 °C 1015.1 hPa SSW 4.3 km/h 9.7 km/h 74 % 0 mm
18:51 1.5 °C -2.6 °C 1015.1 hPa SSW 5.6 km/h 11.1 km/h 74 % 0 mm
18:56 1.4 °C -2.7 °C 1015.1 hPa SSW 2.1 km/h 5.6 km/h 74 % 0 mm
19:06 1.4 °C -2.7 °C 1015.1 hPa SW 3.4 km/h 5.6 km/h 74 % 0 mm
19:12 1.3 °C -2.8 °C 1015.5 hPa WSW 5 km/h 5.6 km/h 74 % 0 mm
19:22 1.3 °C -2.8 °C 1015.1 hPa SW 1.9 km/h 9.3 km/h 74 % 0 mm
19:27 1.3 °C -2.7 °C 1015.5 hPa SW 4.7 km/h 7.4 km/h 75 % 0 mm
19:32 1.3 °C -2.8 °C 1015.5 hPa SSW 4 km/h 7.4 km/h 74 % 0 mm
19:42 1.3 °C -2.7 °C 1015.5 hPa SSW 4.5 km/h 11.1 km/h 75 % 0 mm
19:47 1.3 °C -2.8 °C 1015.5 hPa SSW 3.9 km/h 8 km/h 74 % 0 mm
19:52 1.3 °C -2.8 °C 1015.5 hPa WSW 8.2 km/h 9.3 km/h 74 % 0 mm
19:57 1.3 °C -2.8 °C 1015.8 hPa SW 3.2 km/h 8 km/h 74 % 0 mm
20:07 1.3 °C -3 °C 1015.8 hPa WSW 2.7 km/h 4.8 km/h 73 % 0 mm
20:17 1.3 °C -3 °C 1015.8 hPa SSW 4.7 km/h 9.3 km/h 73 % 0 mm
20:23 1.3 °C -3 °C 1016.1 hPa SW 3.9 km/h 5.6 km/h 73 % 0 mm
20:33 1.3 °C -3 °C 1016.1 hPa South 1.9 km/h 9.3 km/h 73 % 0 mm
20:43 1.3 °C -3.2 °C 1015.8 hPa SW 1.3 km/h 5.6 km/h 72 % 0 mm
20:48 1.3 °C -3 °C 1015.8 hPa SSE 2.6 km/h 9.3 km/h 73 % 0 mm
20:53 1.3 °C -3 °C 1015.8 hPa SW 2.1 km/h 5.6 km/h 73 % 0 mm
20:58 1.3 °C -3 °C 1015.8 hPa WSW 0.2 km/h 5.6 km/h 73 % 0 mm
21:03 1.3 °C -3 °C 1015.8 hPa SSW 3.4 km/h 5.6 km/h 73 % 0 mm
21:08 1.3 °C -3 °C 1015.8 hPa SW 1.9 km/h 5.6 km/h 73 % 0 mm
21:18 1.3 °C -2.8 °C 1016.1 hPa WSW 6.1 km/h 11.1 km/h 74 % 0 mm
21:23 1.3 °C -2.8 °C 1016.1 hPa SSW 6 km/h 8 km/h 74 % 0 mm
21:43 1.4 °C -2.7 °C 1016.1 hPa SW 7.7 km/h 12.9 km/h 74 % 0 mm
21:54 1.5 °C -2.6 °C 1016.1 hPa SSW 4.7 km/h 11.3 km/h 74 % 0 mm
22:04 1.6 °C -2.6 °C 1015.8 hPa SW 3.5 km/h 7.4 km/h 74 % 0 mm
22:09 1.6 °C -2.6 °C 1015.8 hPa WSW 0.3 km/h 5.6 km/h 74 % 0 mm
22:14 1.6 °C -2.6 °C 1015.8 hPa SW 7.6 km/h 13 km/h 74 % 0 mm
22:19 1.6 °C -2.5 °C 1015.8 hPa SW 4.7 km/h 8 km/h 74 % 0 mm
22:24 1.7 °C -2.7 °C 1015.8 hPa SW 10.6 km/h 18.5 km/h 73 % 0 mm
22:34 1.7 °C -2.8 °C 1015.8 hPa WSW 6.8 km/h 11.3 km/h 72 % 0 mm
22:39 1.7 °C -2.8 °C 1016.1 hPa West 10.5 km/h 18.5 km/h 72 % 0 mm
22:44 1.8 °C -2.9 °C 1015.8 hPa WSW 7.4 km/h 16.1 km/h 71 % 0 mm
22:49 1.8 °C -2.9 °C 1015.8 hPa SW 8.9 km/h 11.3 km/h 71 % 0 mm
22:54 1.8 °C -3.1 °C 1015.8 hPa SW 6.3 km/h 9.3 km/h 70 % 0 mm
23:04 1.9 °C -2.8 °C 1015.8 hPa SSW 1.6 km/h 4.8 km/h 71 % 0 mm
23:09 1.9 °C -2.6 °C 1015.8 hPa WSW 4.2 km/h 6.4 km/h 72 % 0 mm
23:14 1.8 °C -2.7 °C 1016.1 hPa South 6.4 km/h 11.3 km/h 72 % 0 mm
23:19 1.8 °C -2.7 °C 1015.8 hPa SW 1.6 km/h 3.7 km/h 72 % 0 mm
23:25 1.8 °C -2.7 °C 1016.1 hPa WSW 5 km/h 13 km/h 72 % 0 mm
23:30 1.8 °C -2.7 °C 1015.8 hPa SSW 4 km/h 7.4 km/h 72 % 0 mm
23:35 1.8 °C -2.7 °C 1016.1 hPa SSW 2.3 km/h 9.3 km/h 72 % 0 mm
23:40 1.8 °C -2.7 °C 1016.1 hPa SSW 5.6 km/h 11.3 km/h 72 % 0 mm
23:50 1.7 °C -2.8 °C 1015.8 hPa SW 6.6 km/h 13 km/h 72 % 0 mm
Crab Meadow Weather
Compliments of Weather Underground - 2.5 mb

Script developed by  Jim McMurry - jmcmurry@mwt.net Adapted for the template by  Wim van der Kuil - Leuven-Template.eu

Weather Terms: Winter Weather Advisory - Hazardous winter weather conditions are occurring, imminent or likely. Conditions will cause a significant inconvenience and if caution is not exercised, will result in a potential threat to life and/or property. The generic term, winter weather advisory, is used for a combination of two or more of the following events; snow, freezing rain or drizzle, sleet, blowing snow.